[[[{"header":{"parameterUnit":"kt","parameterCategory":2,"dx":1,"dy":1,"la1":30.253999710083008,"la2":30.299108505249023,"lo1":-89.0895004272461,"lo2":-89.04439544677734,"nx":28,"ny":28,"refTime":"2022-09-19T21:00:00:Z","depth":0,"parameterNumber":1,"parameterNumberName":"U-component_of_WINDS"},"data":[-3.2283,-3.2216,-3.2178,-3.2083,-3.2032,-3.1961,-3.1923,-3.1869,-3.1816,-3.1726,-3.1667,-3.162,-3.1551,-3.1471,-3.1404,-3.1384,-3.1359,-3.1365,-3.134,-3.1349,-3.1347,-3.1346,-3.1359,-3.136,-3.136,-3.1337,-3.1337,-3.1337,-3.2299,-3.2248,-3.2186,-3.21,-3.2046,-3.2018,-3.1946,-3.1903,-3.1839,-3.1773,-3.1712,-3.1629,-3.1557,-3.1483,-3.1407,-3.1375,-3.1356,-3.1357,-3.1358,-3.1348,-3.1356,-3.137,-3.1374,-3.1374,-3.1374,-3.1374,-3.1374,-3.1374,-3.2316,-3.2277,-3.2201,-3.2133,-3.2078,-3.202,-3.1975,-3.1918,-3.1856,-3.1772,-3.1735,-3.1661,-3.1586,-3.1473,-3.1425,-3.1366,-3.1356,-3.1344,-3.1341,-3.1339,-3.1343,-3.1384,-3.1351,-3.135,-3.135,-3.135,-3.135,0,-3.2316,-3.2286,-3.2222,-3.2148,-3.2095,-3.2033,-3.1969,-3.194,-3.1859,-3.181,-3.1737,-3.1687,-3.159,-3.1515,-3.1434,-3.1384,-3.1346,-3.1337,-3.1329,-3.1346,-3.1373,-3.1358,-3.1373,-3.1338,-3.1338,-3.1337,-3.1337,-3.1337,-3.233,-3.2288,-3.2188,-3.2149,-3.2103,-3.2041,-3.1995,-3.1926,-3.188,-3.179,-3.1758,-3.1682,-3.1618,-3.1505,-3.1435,-3.1361,-3.1341,-3.1333,-3.1329,-3.1349,-3.1341,-3.1344,-3.134,-3.1334,-3.1335,-3.1335,-3.1335,0,-3.2342,-3.2275,-3.2197,-3.21,-3.2074,-3.2034,-3.195,-3.1907,-3.1854,-3.1787,-3.1767,-3.1683,-3.1611,-3.1541,-3.1443,-3.1409,-3.1342,-3.1324,-3.1369,-3.1361,-3.1347,-3.1349,-3.131,-3.1301,-3.1299,-3.1299,-3.1299,0,-3.2327,-3.2274,-3.2177,-3.2135,-3.2074,-3.2005,-3.1946,-3.1894,-3.1826,-3.1772,-3.1718,-3.1669,-3.1586,-3.1527,-3.1476,-3.1408,-3.1389,-3.1359,-3.1346,-3.1363,-3.1367,-3.1336,-3.1335,-3.1317,-3.1317,-3.1317,-3.1318,0,-3.2352,-3.2237,-3.2168,-3.213,-3.2019,-3.1989,-3.1941,-3.1863,-3.1818,-3.1748,-3.1717,-3.164,-3.1598,-3.1539,-3.1474,-3.1475,-3.1389,-3.1376,-3.1358,-3.1359,-3.1341,-3.1342,-3.1327,-3.1318,-3.1318,-3.1318,-3.1318,0,-3.2329,-3.226,-3.2169,-3.2076,-3.2048,-3.2002,-3.1921,-3.1865,-3.1787,-3.1751,-3.1695,-3.1649,-3.1583,-3.1576,-3.1484,-3.1504,-3.1465,-3.1429,-3.1427,-3.1415,-3.1408,-3.1408,-3.1401,-3.1398,-3.1408,-3.1408,-3.1409,0,-3.2377,-3.2266,-3.2205,-3.2119,-3.2058,-3.2001,-3.1948,-3.188,-3.1828,-3.1768,-3.171,-3.1641,-3.162,-3.1588,-3.1553,-3.1489,-3.1464,-3.1491,-3.1405,-3.1402,-3.1428,-3.1421,-3.1437,-3.1411,-3.1417,-3.1416,-3.1416,0,-3.2404,-3.2269,-3.2257,-3.2211,-3.2109,-3.2056,-3.1995,-3.1912,-3.1876,-3.1803,-3.175,-3.1651,-3.1632,-3.1579,-3.1532,-3.1498,-3.1479,-3.1481,-3.1478,-3.1483,-3.1415,-3.1431,-3.1427,-3.1455,-3.1454,-3.1453,-3.1422,0,-3.2385,-3.2319,-3.2286,-3.2184,-3.2132,-3.2074,-3.1997,-3.1952,-3.1913,-3.1858,-3.1778,-3.17,-3.1612,-3.1588,-3.1548,-3.1493,-3.149,-3.1469,-3.1454,-3.1451,-3.1439,-3.1434,-3.148,-3.1479,-3.1478,-3.1477,0,0,-3.2447,-3.2351,-3.2283,-3.222,-3.2172,-3.2111,-3.2055,-3.2001,-3.1891,-3.1859,-3.1851,-3.17,-3.1635,-3.1545,-3.1538,-3.1502,-3.1485,-3.1488,-3.1453,-3.1451,-3.1449,-3.1437,-3.1433,-3.1476,-3.1476,-3.1475,-3.1475,0,-3.2424,-3.2361,-3.2307,-3.2248,-3.2157,-3.2101,-3.2088,-3.1987,-3.1948,-3.1868,-3.1817,-3.1759,-3.1637,-3.1577,-3.153,-3.1498,-3.1461,-3.1478,-3.1487,-3.1449,-3.1447,-3.1446,-3.1435,-3.1432,-3.1473,-3.1473,-3.1474,0,-3.2437,-3.2363,-3.2328,-3.2214,-3.2153,-3.209,-3.2057,-3.1991,-3.1943,-3.1876,-3.1797,-3.1742,-3.1653,-3.1578,-3.1541,-3.1531,-3.1445,-3.1457,-3.1459,-3.1453,-3.1412,-3.141,-3.1409,-3.1426,-3.1426,-3.1426,0,0,-3.2427,-3.2364,-3.2261,-3.2203,-3.2168,-3.2083,-3.2041,-3.1996,-3.1918,-3.1886,-3.1815,-3.174,-3.1669,-3.1623,-3.1552,-3.148,-3.1455,-3.1454,-3.1457,-3.1459,-3.1454,-3.1413,-3.1412,-3.1427,-3.1427,-3.1427,0,0,-3.2421,-3.2299,-3.2272,-3.2195,-3.2124,-3.2016,-3.1983,-3.1948,-3.1875,-3.1873,-3.1792,-3.1768,-3.1696,-3.1643,-3.1661,-3.1545,-3.1533,-3.1526,-3.1582,-3.1583,-3.1585,-3.1599,-3.1614,0,0,0,0,0,-3.2356,-3.2314,-3.2292,-3.2267,-3.212,-3.203,-3.201,-3.1943,-3.1937,-3.1913,-3.1847,-3.1809,-3.1637,-3.1651,-3.1627,-3.1607,-3.1435,-3.1434,-3.1432,-3.1486,-3.1489,-3.1491,0,0,0,0,0,0,-3.2345,-3.2315,-3.2292,-3.2185,-3.2151,-3.203,-3.2005,-3.1985,-3.1937,-3.1932,-3.1824,-3.1806,-3.1746,-3.1658,-3.1638,-3.162,-3.162,-3.1435,-3.1433,-3.1432,-3.1487,-3.1489,-3.1491,0,0,0,0,0,-3.2337,-3.2313,-3.2095,-3.2184,-3.2155,-3.2056,-3.2006,-3.1989,-3.1951,-3.1848,-3.1829,-3.1904,-3.1747,-3.1725,-3.1646,-3.1631,-3.1634,-3.1627,-3.1434,-3.1433,-3.1432,-3.1488,0,0,0,0,0,0,-3.233,-3.2296,-3.2088,-3.2076,-3.2194,-3.2062,-3.2039,-3.1993,-3.1868,-3.185,-3.1925,-3.1922,-3.1748,-3.1731,-3.1714,-3.1639,-3.1645,-3.1638,-3.1633,-3.1433,-3.1432,-3.1432,0,0,0,0,0,0,-3.2309,-3.2287,-3.2082,-3.2098,-3.2088,-3.2067,-3.2046,-3.1968,-3.1867,-3.1952,-3.1945,-3.1925,-3.1772,-3.1734,-3.1721,-3.1601,-3.1654,-3.1647,-3.1642,-3.1639,-3.1432,-3.1432,0,0,0,0,0,0,-3.2298,-3.228,-3.2101,-3.2093,-3.2084,-3.195,-3.1996,-3.1849,-3.1883,-3.1958,-3.1884,-3.1885,-3.1777,-3.1762,-3.1726,-3.1612,-3.1604,-3.1654,-3.1649,-3.1645,-3.1643,0,0,0,0,0,0,0,-3.229,-3.2431,-3.2156,-3.2089,-3.2081,-3.1971,-3.1968,-3.1964,-3.1884,-3.1884,-3.1884,-3.1885,-3.1695,-3.1687,-3.1679,-3.1621,0,0,-3.1654,-3.1651,0,0,0,0,0,0,0,0,-3.2438,-3.2433,-3.2156,-3.2153,-3.2151,-3.197,-3.1968,-3.1965,-3.1884,-3.1884,-3.1884,-3.1885,-3.1693,-3.1686,-3.168,0,0,0,0,0,0,0,0,0,0,0,0,0,0,0,-3.2155,-3.2153,0,-3.197,-3.1968,-3.1966,-3.1884,-3.1884,-3.1884,-3.1884,-3.1691,-3.1686,-3.168,0,0,0,0,0,0,0,0,0,0,0,0,0,0,0,0,0,0,0,0,0,0,0,0,0,0,0,0,0,0,0,0,0,0,0,0,0,0,0,0,0,0,0,0,0,0,0,0,0,0,0,0,0,0,0,0,0,0,0,0,0,0,0,0,0,0,0,0,0]}],[{"header":{"parameterUnit":"kt","parameterCategory":2,"dx":1,"dy":1,"la1":30.253999710083008,"la2":30.299108505249023,"lo1":-89.0895004272461,"lo2":-89.04439544677734,"nx":28,"ny":28,"refTime":"2022-09-19T21:00:00:Z","depth":0,"parameterNumber":2,"parameterNumberName":"V-component_of_WINDS"},"data":[-1.3259,-1.3268,-1.3272,-1.3286,-1.3291,-1.3302,-1.3307,-1.3314,-1.3321,-1.3335,-1.3344,-1.335,-1.3359,-1.3372,-1.3383,-1.3385,-1.339,-1.3393,-1.3395,-1.3381,-1.3379,-1.3377,-1.3376,-1.3393,-1.3393,-1.3411,-1.3411,-1.3411,-1.3255,-1.3261,-1.3268,-1.3277,-1.3284,-1.3285,-1.3293,-1.3299,-1.3308,-1.3316,-1.3324,-1.3337,-1.3347,-1.3355,-1.3366,-1.3373,-1.3375,-1.3376,-1.3377,-1.3379,-1.3363,-1.3361,-1.3375,-1.3375,-1.3375,-1.3375,-1.3375,-1.3375,-1.3249,-1.3254,-1.3261,-1.3268,-1.3273,-1.328,-1.3285,-1.329,-1.3298,-1.3307,-1.331,-1.332,-1.3329,-1.3343,-1.3348,-1.3358,-1.3356,-1.3359,-1.3361,-1.3362,-1.3364,-1.3344,-1.3359,-1.3359,-1.3359,-1.3359,-1.3359,0,-1.3246,-1.3248,-1.3253,-1.3261,-1.3266,-1.3271,-1.3277,-1.3281,-1.3285,-1.3291,-1.33,-1.3306,-1.3317,-1.3327,-1.3337,-1.3342,-1.3343,-1.3343,-1.3345,-1.3346,-1.3346,-1.3349,-1.3326,-1.3342,-1.3342,-1.3342,-1.3342,-1.3342,-1.3242,-1.3245,-1.3252,-1.3256,-1.3259,-1.3264,-1.3268,-1.3271,-1.3276,-1.3284,-1.3288,-1.3296,-1.3303,-1.3317,-1.3323,-1.3332,-1.3332,-1.3339,-1.3334,-1.3335,-1.3336,-1.3336,-1.3338,-1.334,-1.334,-1.334,-1.3341,0,-1.324,-1.3243,-1.3248,-1.3254,-1.3256,-1.326,-1.3265,-1.327,-1.3272,-1.3279,-1.3281,-1.3286,-1.3295,-1.3298,-1.3308,-1.331,-1.3322,-1.3322,-1.3321,-1.3322,-1.333,-1.333,-1.335,-1.3354,-1.3333,-1.3333,-1.3334,0,-1.3239,-1.3242,-1.3246,-1.3249,-1.3254,-1.3256,-1.3262,-1.3264,-1.3269,-1.3274,-1.3275,-1.328,-1.3283,-1.329,-1.3292,-1.3302,-1.3303,-1.3306,-1.3307,-1.3307,-1.3307,-1.331,-1.331,-1.3305,-1.3305,-1.3305,-1.3305,0,-1.3237,-1.3241,-1.3245,-1.3246,-1.3251,-1.3254,-1.3256,-1.326,-1.3263,-1.3268,-1.327,-1.3276,-1.3279,-1.3284,-1.3287,-1.3284,-1.3298,-1.3294,-1.3302,-1.3302,-1.3305,-1.3305,-1.3321,-1.3305,-1.3305,-1.3305,-1.3305,0,-1.3235,-1.3238,-1.3242,-1.3247,-1.3248,-1.325,-1.3255,-1.3257,-1.3261,-1.3262,-1.3266,-1.3266,-1.3272,-1.3269,-1.3278,-1.3274,-1.3278,-1.328,-1.3281,-1.3282,-1.3278,-1.329,-1.3303,-1.3306,-1.3284,-1.3284,-1.3284,0,-1.3234,-1.3238,-1.3238,-1.3242,-1.3244,-1.3244,-1.3247,-1.3249,-1.3251,-1.3254,-1.3256,-1.3259,-1.3256,-1.3258,-1.3262,-1.3265,-1.3271,-1.3263,-1.3272,-1.3273,-1.3274,-1.3285,-1.3287,-1.3299,-1.3281,-1.3282,-1.3282,0,-1.3233,-1.3235,-1.3235,-1.3237,-1.3238,-1.3238,-1.3241,-1.3243,-1.3246,-1.3246,-1.3251,-1.3253,-1.3253,-1.3254,-1.3253,-1.3258,-1.3267,-1.3256,-1.3256,-1.326,-1.3279,-1.3282,-1.3284,-1.3266,-1.3267,-1.3267,-1.328,0,-1.3236,-1.3235,-1.3235,-1.3235,-1.3236,-1.3236,-1.3236,-1.3237,-1.3237,-1.3237,-1.3241,-1.3241,-1.3243,-1.3244,-1.3243,-1.325,-1.325,-1.3248,-1.3245,-1.3251,-1.3256,-1.3258,-1.3238,-1.3238,-1.3238,-1.3238,0,0,-1.3235,-1.3234,-1.3232,-1.3232,-1.3232,-1.323,-1.3232,-1.3231,-1.323,-1.3232,-1.323,-1.3233,-1.3232,-1.3237,-1.3239,-1.3239,-1.3241,-1.3237,-1.3248,-1.3249,-1.325,-1.3255,-1.3256,-1.3238,-1.3238,-1.3238,-1.3238,0,-1.3236,-1.3233,-1.3232,-1.3231,-1.323,-1.3229,-1.3229,-1.3228,-1.3227,-1.3229,-1.3227,-1.3229,-1.3229,-1.3231,-1.3231,-1.3237,-1.3236,-1.3237,-1.3241,-1.3247,-1.3248,-1.3249,-1.3254,-1.3255,-1.3238,-1.3238,-1.3238,0,-1.3236,-1.3234,-1.3232,-1.3229,-1.3228,-1.3228,-1.3225,-1.3224,-1.3225,-1.3222,-1.3223,-1.3223,-1.3222,-1.3225,-1.3226,-1.3224,-1.3232,-1.3228,-1.3228,-1.3228,-1.3234,-1.3235,-1.3236,-1.322,-1.322,-1.322,0,0,-1.3237,-1.3235,-1.3232,-1.3229,-1.3228,-1.3226,-1.3225,-1.3224,-1.3222,-1.3222,-1.322,-1.322,-1.3221,-1.3221,-1.3221,-1.3223,-1.3225,-1.3225,-1.3226,-1.3227,-1.3228,-1.3233,-1.3234,-1.322,-1.322,-1.322,0,0,-1.3237,-1.3233,-1.3232,-1.3228,-1.3227,-1.3224,-1.3223,-1.3222,-1.3221,-1.322,-1.3218,-1.3218,-1.322,-1.3218,-1.3216,-1.3221,-1.3218,-1.3218,-1.3221,-1.3222,-1.3223,-1.3224,-1.3212,0,0,0,0,0,-1.3236,-1.3234,-1.3233,-1.3232,-1.3226,-1.3224,-1.3224,-1.3221,-1.322,-1.322,-1.3219,-1.3217,-1.3217,-1.3215,-1.3215,-1.3218,-1.3217,-1.3218,-1.3218,-1.3223,-1.3224,-1.3225,0,0,0,0,0,0,-1.3235,-1.3234,-1.3233,-1.3229,-1.3228,-1.3224,-1.3222,-1.3221,-1.322,-1.3219,-1.3217,-1.3217,-1.3215,-1.3215,-1.3215,-1.3218,-1.3213,-1.3218,-1.3218,-1.3218,-1.3223,-1.3224,-1.3225,0,0,0,0,0,-1.3235,-1.3234,-1.3225,-1.3229,-1.3228,-1.3224,-1.3222,-1.3221,-1.322,-1.3217,-1.3217,-1.3218,-1.3215,-1.3214,-1.3215,-1.3218,-1.3213,-1.3213,-1.3218,-1.3218,-1.3218,-1.3224,0,0,0,0,0,0,-1.3235,-1.3234,-1.3225,-1.3225,-1.3229,-1.3225,-1.3224,-1.3221,-1.3218,-1.3218,-1.3219,-1.3218,-1.3215,-1.3215,-1.3214,-1.3218,-1.3213,-1.3213,-1.3213,-1.3218,-1.3218,-1.3219,0,0,0,0,0,0,-1.3235,-1.3234,-1.3225,-1.3224,-1.3224,-1.3225,-1.3224,-1.3223,-1.3218,-1.3219,-1.3219,-1.3218,-1.3216,-1.3215,-1.3214,-1.3213,-1.3213,-1.3213,-1.3213,-1.3213,-1.3218,-1.3218,0,0,0,0,0,0,-1.3234,-1.3233,-1.3225,-1.3224,-1.3224,-1.322,-1.3224,-1.3219,-1.3217,-1.322,-1.3217,-1.3217,-1.3216,-1.3215,-1.3215,-1.3214,-1.3213,-1.3213,-1.3213,-1.3213,-1.3213,0,0,0,0,0,0,0,-1.3234,-1.3239,-1.3227,-1.3224,-1.3224,-1.3221,-1.3221,-1.3221,-1.3217,-1.3217,-1.3217,-1.3217,-1.3213,-1.3213,-1.3213,-1.3214,0,0,-1.3213,-1.3213,0,0,0,0,0,0,0,0,-1.3239,-1.3239,-1.3227,-1.3227,-1.3227,-1.3221,-1.3221,-1.3221,-1.3217,-1.3217,-1.3217,-1.3217,-1.3213,-1.3213,-1.3213,0,0,0,0,0,0,0,0,0,0,0,0,0,0,0,-1.3227,-1.3227,0,-1.3221,-1.3221,-1.3221,-1.3217,-1.3217,-1.3217,-1.3217,-1.3213,-1.3213,-1.3213,0,0,0,0,0,0,0,0,0,0,0,0,0,0,0,0,0,0,0,0,0,0,0,0,0,0,0,0,0,0,0,0,0,0,0,0,0,0,0,0,0,0,0,0,0,0,0,0,0,0,0,0,0,0,0,0,0,0,0,0,0,0,0,0,0,0,0,0,0]}]]]